This demonstration page uses our WeatherBlox Daily Observations layout. Learn more.

Left ArrowRight Arrow

38.83388, -104.82136

Hourly Observations for January 19, 2022

Temp ( °F °C ) Dew Point ( °F °C ) Humidity (%) Winds ( mph kmh ) Pressure ( in mb ) Visibility ( mi km ) Precip ( " mm )
11:31 am 11:31 Mostly Sunny N/A N/A N/A undefined N/A N/A N/A 0.00 0.00
12:58 pm 12:58 Partly Cloudy with Light Freezing Rain 19 -7.4 19 -7.4 100 100 ESE 10 17 30.38 1029 N/A 0.00 0.00
1:08 pm 13:08 Partly Cloudy with Drizzle 19 -7 19 -7 100 100 E 10 17 30.37 1028 3 5 0.00 0.00
1:20 pm 13:20 Mostly Cloudy with Light Freezing Drizzle 19 -7 19 -7 100 100 E 10 17 30.36 1028 3 5 0.00 0.00
1:58 pm 13:58 Mostly Cloudy with Light Freezing Rain 19 -7.4 19 -7.4 100 100 E 12 19 30.38 1029 0 0 0.00 0.00
2:58 pm 14:58 Mostly Cloudy with Light Freezing Rain 18 -7.7 18 -7.7 100 100 E 14 22 30.39 1029 0 0 0.00 0.00
3:58 pm 15:58 Mostly Cloudy with Light Freezing Rain 18 -8 17 -8.1 99 99 ESE 9 15 30.42 1030 0 0 0.00 0.00
4:52 pm 16:52 Mostly Cloudy with Heavy Snow 18 -8 18 -8 100 100 E 9 15 30.44 1031 0 0 0.00 0.00
4:58 pm 16:58 Mostly Cloudy with Heavy Snow 17 -8.3 17 -8.6 98 98 E 8 13 30.43 1031 0 0 0.00 0.00
5:58 pm 17:58 Mostly Cloudy with Heavy Snow 17 -8.6 16 -9 97 97 ESE 8 13 30.47 1032 0 0 0.00 0.00
6:04 pm 18:04 Mostly Cloudy with Snow 16 -9 16 -9 100 100 E 7 11 30.48 1032 3 5 0.00 0.00
6:13 pm 18:13 Mostly Cloudy with Heavy Snow 16 -9 16 -9 100 100 E 7 11 30.49 1032 0 0 0.00 0.00
6:24 pm 18:24 Mostly Cloudy with Snow 16 -9 16 -9 100 100 E 8 13 30.49 1032 3 5 0.00 0.00
6:36 pm 18:36 Mostly Cloudy with Heavy Snow 16 -9 16 -9 100 100 E 7 11 30.49 1032 0 0 0.00 0.00
6:58 pm 18:58 Mostly Cloudy with Heavy Snow 16 -8.9 15 -9.3 97 97 E 6 9 30.49 1033 0 0 0.00 0.00
7:58 pm 19:58 Mostly Cloudy with Heavy Snow 14 -10.2 12 -10.9 95 95 E 7 11 30.53 1034 0 0 0.00 0.00
8:34 pm 20:34 Mostly Cloudy with Snow 14 -10 12 -11 92 92 E 5 7 30.52 1034 0 0 0.00 0.00
8:45 pm 20:45 Mostly Cloudy with Heavy Snow 14 -10 12 -11 92 92 E 5 7 30.53 1034 0 0 0.00 0.00
8:46 pm 20:46 Mostly Cloudy with Snow 14 -10 12 -11 92 92 E 3 6 30.53 1034 0 0 0.00 0.00
8:58 pm 20:58 Mostly Cloudy with Snow 13 -10.5 11 -11.4 93 93 Calm 30.55 1035 3 5 0.00 0.00
9:12 pm 21:12 Mostly Cloudy with Heavy Snow 12 -11 12 -11 100 100 E 5 7 30.57 1035 0 0 0.00 0.00
9:58 pm 21:58 Mostly Cloudy with Heavy Snow 12 -10.9 10 -12 92 92 E 5 7 30.57 1035 0 0 0.00 0.00
10:58 pm 22:58 Mostly Cloudy with Heavy Snow 12 -10.9 10 -12 92 92 Calm 30.59 1036 0 0 0.00 0.00
11:58 pm 23:58 Mostly Cloudy with Heavy Snow 12 -11 10 -12.1 92 92 Calm 30.58 1036 0 0 0.00 0.00

Powered by AerisWeather